| time (UTC) | temp C | wind direction | speed KPH | gust KPH | rain 1hr cm | rain 24hr cm | rain mn cm | humidity % | barometer mb |
| 20260502210506 | 17 | 249 | 6.4 | 14.5 | 0.00 | 0.00 | 0.00 | 32 | 1012.8 |
| 20260502210019 | 17 | 247 | 8.0 | 14.5 | 0.00 | 0.00 | 0.00 | 32 | 1012.9 |
| 20260502205507 | 17 | 279 | 8.0 | 12.9 | 0.00 | 0.00 | 0.00 | 31 | 1012.9 |
| 20260502205005 | 18 | 211 | 6.4 | 14.5 | 0.00 | 0.00 | 0.00 | 31 | 1013.0 |
| 20260502204505 | 17 | 232 | 6.4 | 17.7 | 0.00 | 0.00 | 0.00 | 32 | 1013.2 |
| 20260502204006 | 17 | 229 | 6.4 | 17.7 | 0.00 | 0.00 | 0.00 | 32 | 1013.3 |
| 20260502203505 | 17 | 210 | 6.4 | 20.9 | 0.00 | 0.00 | 0.00 | 32 | 1013.3 |
| 20260502203007 | 18 | 225 | 11.3 | 20.9 | 0.00 | 0.00 | 0.00 | 31 | 1013.4 |
| 20260502202507 | 17 | 244 | 4.8 | 16.1 | 0.00 | 0.00 | 0.00 | 34 | 1013.5 |
| 20260502202004 | 17 | 224 | 8.0 | 17.7 | 0.00 | 0.00 | 0.00 | 32 | 1013.5 |
| 20260502201524 | 17 | 230 | 9.7 | 17.7 | 0.00 | 0.00 | 0.00 | 32 | 1013.6 |
| 20260502201008 | 17 | 231 | 3.2 | 16.1 | 0.00 | 0.00 | 0.00 | 33 | 1013.7 |
| 20260502200504 | 17 | 299 | 9.7 | 16.1 | 0.00 | 0.00 | 0.00 | 31 | 1013.8 |
| 20260502200016 | 17 | 225 | 3.2 | 11.3 | 0.00 | 0.00 | 0.00 | 33 | 1013.9 |
| 20260502195508 | 17 | 238 | 3.2 | 11.3 | 0.00 | 0.00 | 0.00 | 32 | 1014.0 |
| 20260502195006 | 17 | 250 | 3.2 | 11.3 | 0.00 | 0.00 | 0.00 | 33 | 1014.0 |
| 20260502194521 | 17 | 206 | 4.8 | 16.1 | 0.00 | 0.00 | 0.00 | 31 | 1014.2 |
| 20260502194003 | 17 | 194 | 4.8 | 16.1 | 0.00 | 0.00 | 0.00 | 33 | 1014.2 |
| 20260502193504 | 17 | 244 | 6.4 | 16.1 | 0.00 | 0.00 | 0.00 | 31 | 1014.3 |
| 20260502193006 | 17 | 201 | 8.0 | 16.1 | 0.00 | 0.00 | 0.00 | 31 | 1014.4 |
| 20260502192503 | 17 | 220 | 3.2 | 6.4 | 0.00 | 0.00 | 0.00 | 34 | 1014.4 |
| 20260502192006 | 16 | 343 | 1.6 | 11.3 | 0.00 | 0.00 | 0.00 | 33 | 1014.6 |
| 20260502191509 | 16 | 245 | 6.4 | 11.3 | 0.00 | 0.00 | 0.00 | 33 | 1014.6 |
| 20260502191005 | 15 | 230 | 6.4 | 16.1 | 0.00 | 0.00 | 0.00 | 33 | 1014.7 |
| 20260502190507 | 15 | 171 | 9.7 | 16.1 | 0.00 | 0.00 | 0.00 | 33 | 1014.9 |
| 20260502190015 | 15 | 237 | 6.4 | 12.9 | 0.00 | 0.00 | 0.00 | 33 | 1015.0 |
| 20260502185506 | 15 | 299 | 6.4 | 12.9 | 0.00 | 0.00 | 0.00 | 32 | 1015.0 |
| 20260502185011 | 16 | 231 | 4.8 | 12.9 | 0.00 | 0.00 | 0.00 | 33 | 1015.1 |
| 20260502184520 | 16 | 227 | 3.2 | 11.3 | 0.00 | 0.00 | 0.00 | 32 | 1015.1 |
| 20260502184009 | 17 | 238 | 6.4 | 12.9 | 0.00 | 0.00 | 0.00 | 31 | 1015.1 |
| 20260502183510 | 16 | 213 | 4.8 | 16.1 | 0.00 | 0.00 | 0.00 | 32 | 1015.2 |
| 20260502183028 | 16 | 234 | 4.8 | 16.1 | 0.00 | 0.00 | 0.00 | 33 | 1015.3 |
| 20260502182504 | 16 | 232 | 6.4 | 14.5 | 0.00 | 0.00 | 0.00 | 32 | 1015.4 |
| 20260502182003 | 16 | 218 | 4.8 | 22.5 | 0.00 | 0.00 | 0.00 | 34 | 1015.4 |
| 20260502181507 | 16 | 218 | 6.4 | 22.5 | 0.00 | 0.00 | 0.00 | 32 | 1015.6 |
| 20260502181003 | 16 | 227 | 12.9 | 22.5 | 0.00 | 0.00 | 0.00 | 30 | 1015.7 |
| 20260502180503 | 16 | 183 | 9.7 | 19.3 | 0.00 | 0.00 | 0.00 | 30 | 1015.7 |
| 20260502170507 | 15 | 246 | 4.8 | 14.5 | 0.00 | 0.03 | 0.00 | 32 | 1016.8 |
| 20260502164009 | 14 | 242 | 4.8 | 11.3 | 0.00 | 0.03 | 0.00 | 32 | 1017.4 |
| 20260502163506 | 13 | 248 | 4.8 | 12.9 | 0.00 | 0.03 | 0.00 | 34 | 1017.4 |
| 20260502163021 | 13 | 235 | 3.2 | 12.9 | 0.00 | 0.03 | 0.00 | 33 | 1017.5 |
| 20260502162508 | 13 | 223 | 6.4 | 17.7 | 0.00 | 0.03 | 0.00 | 33 | 1017.6 |
| 20260502162009 | 13 | 205 | 9.7 | 17.7 | 0.00 | 0.03 | 0.00 | 33 | 1017.6 |
| 20260502161522 | 13 | 226 | 8.0 | 17.7 | 0.00 | 0.03 | 0.00 | 33 | 1017.8 |
| 20260502161008 | 13 | 202 | 3.2 | 25.7 | 0.00 | 0.03 | 0.00 | 33 | 1017.9 |
| 20260502160507 | 13 | 190 | 9.7 | 25.7 | 0.00 | 0.03 | 0.00 | 33 | 1018.0 |
| 20260502152009 | 11 | 180 | 4.8 | 17.7 | 0.00 | 0.03 | 0.00 | 34 | 1018.7 |
| 20260502151524 | 11 | 121 | 11.3 | 17.7 | 0.00 | 0.03 | 0.00 | 35 | 1018.8 |
| 20260502151008 | 11 | 195 | 6.4 | 12.9 | 0.00 | 0.03 | 0.00 | 35 | 1019.1 |
| 20260502150508 | 11 | 208 | 3.2 | 8.0 | 0.00 | 0.03 | 0.00 | 35 | 1019.1 |
| 20260502130507 | 2 | 234 | 0.0 | 3.2 | 0.00 | 0.03 | 0.00 | 75 | 1020.2 |
| 20260502123515 | 0 | 234 | 0.0 | 3.2 | 0.00 | 0.03 | 0.00 | 76 | 1020.4 |
| 20260502123011 | 0 | 234 | 0.0 | 3.2 | 0.00 | 0.03 | 0.00 | 76 | 1020.4 |
| 20260502122507 | 0 | 234 | 0.0 | 0.0 | 0.00 | 0.03 | 0.00 | 77 | 1020.4 |
| 20260502122010 | -1 | 234 | 0.0 | 0.0 | 0.00 | 0.03 | 0.00 | 78 | 1020.4 |
| 20260502121516 | -1 | 234 | 0.0 | 0.0 | 0.00 | 0.03 | 0.00 | 77 | 1020.4 |
| 20260502121005 | -1 | 234 | 0.0 | 0.0 | 0.00 | 0.03 | 0.00 | 77 | 1020.3 |
| 20260502120506 | -1 | 234 | 0.0 | 0.0 | 0.00 | 0.03 | 0.00 | 78 | 1020.4 |
| 20260502115510 | -2 | 234 | 0.0 | 3.2 | 0.00 | 0.03 | 0.00 | 78 | 1020.4 |
| 20260502115011 | -2 | 234 | 0.0 | 0.0 | 0.00 | 0.03 | 0.00 | 77 | 1020.4 |
| 20260502114528 | -2 | 234 | 0.0 | 0.0 | 0.00 | 0.03 | 0.00 | 77 | 1020.5 |
| 20260502114008 | -2 | 234 | 0.0 | 0.0 | 0.00 | 0.03 | 0.00 | 78 | 1020.5 |
| 20260502113509 | -2 | 234 | 0.0 | 0.0 | 0.00 | 0.03 | 0.00 | 78 | 1020.5 |
| 20260502113028 | -2 | 234 | 0.0 | 0.0 | 0.00 | 0.03 | 0.00 | 78 | 1020.5 |
| 20260502112509 | -2 | 234 | 0.0 | 0.0 | 0.00 | 0.03 | 0.00 | 78 | 1020.5 |
| 20260502112006 | -2 | 234 | 0.0 | 0.0 | 0.00 | 0.03 | 0.00 | 79 | 1020.6 |
| 20260502111514 | -2 | 234 | 0.0 | 0.0 | 0.00 | 0.03 | 0.00 | 80 | 1020.5 |
| 20260502111007 | -2 | 234 | 0.0 | 0.0 | 0.00 | 0.03 | 0.00 | 80 | 1020.7 |
| 20260502110506 | -2 | 234 | 0.0 | 0.0 | 0.00 | 0.03 | 0.00 | 80 | 1020.7 |
| 20260502110018 | -2 | 234 | 0.0 | 0.0 | 0.00 | 0.03 | 0.00 | 80 | 1020.6 |
| 20260502105507 | -2 | 234 | 0.0 | 0.0 | 0.00 | 0.03 | 0.00 | 79 | 1020.6 |
| 20260502105007 | -2 | 234 | 0.0 | 0.0 | 0.00 | 0.03 | 0.00 | 79 | 1020.6 |
| 20260502104527 | -2 | 234 | 0.0 | 0.0 | 0.00 | 0.03 | 0.00 | 79 | 1020.6 |
| 20260502104006 | -2 | 234 | 0.0 | 0.0 | 0.00 | 0.03 | 0.00 | 79 | 1020.7 |
| 20260502103507 | -2 | 234 | 0.0 | 0.0 | 0.00 | 0.03 | 0.00 | 78 | 1020.7 |
| 20260502103027 | -2 | 234 | 0.0 | 0.0 | 0.00 | 0.03 | 0.00 | 78 | 1020.8 |
| 20260502102515 | -2 | 234 | 0.0 | 0.0 | 0.00 | 0.03 | 0.00 | 77 | 1020.8 |
| 20260502102012 | -2 | 234 | 0.0 | 0.0 | 0.00 | 0.03 | 0.00 | 77 | 1020.9 |
| 20260502101528 | -2 | 234 | 0.0 | 0.0 | 0.00 | 0.03 | 0.00 | 77 | 1020.9 |
| 20260502101011 | -2 | 234 | 0.0 | 0.0 | 0.00 | 0.03 | 0.00 | 77 | 1020.9 |
| 20260502100508 | -2 | 234 | 0.0 | 0.0 | 0.00 | 0.03 | 0.00 | 78 | 1020.9 |
| 20260502091528 | -2 | 234 | 0.0 | 0.0 | 0.00 | 0.03 | 0.00 | 73 | 1020.9 |
| 20260502091009 | -1 | 234 | 0.0 | 0.0 | 0.00 | 0.03 | 0.00 | 72 | 1020.9 |
| 20260502090509 | -1 | 234 | 0.0 | 0.0 | 0.00 | 0.03 | 0.00 | 72 | 1020.9 |
| 20260502071523 | 0 | 234 | 0.0 | 0.0 | 0.00 | 0.03 | 0.00 | 64 | 1021.3 |
| 20260502071009 | 0 | 234 | 0.0 | 0.0 | 0.00 | 0.03 | 0.00 | 65 | 1021.4 |
| 20260502070513 | 0 | 234 | 0.0 | 0.0 | 0.00 | 0.03 | 0.00 | 64 | 1021.4 |
| 20260502070038 | 0 | 234 | 0.0 | 0.0 | 0.00 | 0.03 | 0.00 | 64 | 1021.4 |
| 20260502065511 | 0 | 234 | 0.0 | 3.2 | 0.00 | 0.03 | 0.00 | 63 | 1021.5 |
| 20260502065017 | 0 | 234 | 0.0 | 3.2 | 0.00 | 0.03 | 0.00 | 63 | 1021.5 |
| 20260502064526 | 0 | 234 | 0.0 | 3.2 | 0.00 | 0.03 | 0.00 | 62 | 1021.6 |
| 20260502064008 | 0 | 234 | 0.0 | 3.2 | 0.00 | 0.03 | 0.00 | 62 | 1021.6 |
| 20260502063515 | 0 | 234 | 0.0 | 0.0 | 0.00 | 0.03 | 0.00 | 61 | 1021.7 |
| 20260502063032 | 0 | 234 | 0.0 | 0.0 | 0.00 | 0.03 | 0.00 | 60 | 1021.8 |
| 20260502062510 | 1 | 234 | 0.0 | 0.0 | 0.00 | 0.03 | 0.00 | 60 | 1021.9 |
| 20260502062009 | 1 | 234 | 0.0 | 3.2 | 0.00 | 0.03 | 0.00 | 59 | 1021.9 |
| 20260502061522 | 1 | 234 | 0.0 | 3.2 | 0.00 | 0.03 | 0.00 | 60 | 1021.9 |
| 20260502061009 | 1 | 234 | 0.0 | 0.0 | 0.00 | 0.03 | 0.00 | 59 | 1022.0 |
| 20260502060509 | 1 | 234 | 0.0 | 0.0 | 0.00 | 0.03 | 0.00 | 60 | 1022.0 |
| 20260502060036 | 1 | 234 | 0.0 | 0.0 | 0.00 | 0.03 | 0.00 | 59 | 1022.0 |
| 20260502055511 | 1 | 234 | 0.0 | 1.6 | 0.00 | 0.03 | 0.00 | 59 | 1022.1 |
| 20260502055015 | 1 | 234 | 0.0 | 1.6 | 0.00 | 0.03 | 0.00 | 58 | 1022.1 |
| 20260502054539 | 1 | 234 | 0.0 | 3.2 | 0.00 | 0.03 | 0.00 | 58 | 1022.1 |
| 20260502054009 | 1 | 234 | 0.0 | 3.2 | 0.00 | 0.03 | 0.00 | 57 | 1022.0 |
| 20260502053508 | 2 | 234 | 0.0 | 3.2 | 0.00 | 0.03 | 0.00 | 57 | 1021.9 |
| 20260502053027 | 2 | 234 | 0.0 | 1.6 | 0.00 | 0.03 | 0.00 | 56 | 1021.8 |
| 20260502052516 | 2 | 234 | 0.0 | 3.2 | 0.00 | 0.03 | 0.00 | 56 | 1021.9 |
| 20260502052011 | 2 | 229 | 0.0 | 3.2 | 0.00 | 0.03 | 0.00 | 56 | 1021.9 |
| 20260502051528 | 2 | 229 | 0.0 | 3.2 | 0.00 | 0.03 | 0.00 | 56 | 1021.8 |
| 20260502051011 | 2 | 229 | 1.6 | 3.2 | 0.00 | 0.03 | 0.00 | 56 | 1021.9 |
| 20260502050505 | 2 | 271 | 0.0 | 3.2 | 0.00 | 0.03 | 0.00 | 56 | 1021.9 |
| 20260502050022 | 2 | 271 | 0.0 | 3.2 | 0.00 | 0.03 | 0.00 | 55 | 1021.9 |
| 20260502045508 | 2 | 271 | 0.0 | 3.2 | 0.00 | 0.03 | 0.03 | 55 | 1021.8 |
| 20260502045005 | 2 | 271 | 0.0 | 3.2 | 0.00 | 0.03 | 0.03 | 55 | 1021.8 |
| 20260502044506 | 2 | 271 | 0.0 | 3.2 | 0.00 | 0.03 | 0.03 | 55 | 1021.9 |
| 20260502044006 | 3 | 271 | 0.0 | 3.2 | 0.00 | 0.03 | 0.03 | 55 | 1021.9 |
| 20260502043505 | 3 | 271 | 0.0 | 3.2 | 0.00 | 0.03 | 0.03 | 55 | 1021.9 |
| 20260502043010 | 3 | 271 | 0.0 | 3.2 | 0.00 | 0.03 | 0.03 | 54 | 1022.0 |
| 20260502042505 | 3 | 271 | 0.0 | 3.2 | 0.00 | 0.03 | 0.03 | 54 | 1022.0 |
| 20260502042006 | 3 | 271 | 0.0 | 3.2 | 0.00 | 0.03 | 0.03 | 54 | 1022.0 |
| 20260502041527 | 3 | 271 | 0.0 | 3.2 | 0.00 | 0.03 | 0.03 | 54 | 1022.1 |
| 20260502041008 | 3 | 271 | 0.0 | 3.2 | 0.00 | 0.03 | 0.03 | 54 | 1022.1 |
| 20260502040509 | 3 | 271 | 0.0 | 3.2 | 0.00 | 0.03 | 0.03 | 54 | 1022.2 |
| 20260502040042 | 3 | 271 | 0.0 | 3.2 | 0.00 | 0.03 | 0.03 | 54 | 1022.2 |
| 20260502035507 | 3 | 309 | 0.0 | 3.2 | 0.00 | 0.03 | 0.03 | 53 | 1022.2 |
| 20260502035008 | 3 | 309 | 0.0 | 3.2 | 0.00 | 0.03 | 0.03 | 52 | 1022.1 |
| 20260502034524 | 4 | 309 | 0.0 | 3.2 | 0.00 | 0.03 | 0.03 | 51 | 1022.1 |
| 20260502034012 | 4 | 309 | 0.0 | 3.2 | 0.00 | 0.03 | 0.03 | 50 | 1022.1 |
| 20260502033510 | 4 | 309 | 0.0 | 3.2 | 0.00 | 0.03 | 0.03 | 48 | 1022.1 |
| 20260502033015 | 5 | 309 | 0.0 | 0.0 | 0.00 | 0.03 | 0.03 | 49 | 1022.0 |
| 20260502032505 | 5 | 309 | 0.0 | 0.0 | 0.00 | 0.03 | 0.03 | 50 | 1022.0 |
| 20260502032007 | 5 | 309 | 0.0 | 3.2 | 0.00 | 0.03 | 0.03 | 48 | 1022.0 |
| 20260502031510 | 5 | 309 | 0.0 | 3.2 | 0.00 | 0.03 | 0.03 | 46 | 1021.9 |
| 20260502031005 | 5 | 309 | 0.0 | 3.2 | 0.00 | 0.03 | 0.03 | 46 | 1022.0 |
| 20260502030506 | 5 | 309 | 0.0 | 3.2 | 0.00 | 0.03 | 0.03 | 45 | 1022.0 |
| 20260502030018 | 5 | 317 | 0.0 | 3.2 | 0.00 | 0.03 | 0.03 | 45 | 1022.0 |
| 20260502025505 | 5 | 311 | 0.0 | 3.2 | 0.00 | 0.03 | 0.03 | 45 | 1022.0 |
| 20260502025014 | 5 | 311 | 0.0 | 8.0 | 0.00 | 0.03 | 0.03 | 45 | 1022.0 |
| 20260502024521 | 5 | 309 | 1.6 | 8.0 | 0.00 | 0.03 | 0.03 | 45 | 1022.0 |
| 20260502024010 | 5 | 311 | 0.0 | 8.0 | 0.00 | 0.03 | 0.03 | 44 | 1021.9 |
| 20260502023511 | 5 | 299 | 0.0 | 3.2 | 0.00 | 0.03 | 0.03 | 44 | 1021.9 |
| 20260502023032 | 6 | 300 | 0.0 | 3.2 | 0.00 | 0.03 | 0.03 | 44 | 1021.9 |
| 20260502022504 | 6 | 286 | 0.0 | 3.2 | 0.00 | 0.03 | 0.03 | 44 | 1021.9 |
| 20260502022005 | 6 | 279 | 0.0 | 3.2 | 0.00 | 0.03 | 0.03 | 42 | 1021.8 |
| 20260502021509 | 6 | 279 | 0.0 | 3.2 | 0.00 | 0.03 | 0.03 | 41 | 1021.7 |
| 20260502021008 | 6 | 279 | 0.0 | 3.2 | 0.00 | 0.03 | 0.03 | 40 | 1021.6 |
| 20260502020507 | 7 | 279 | 0.0 | 0.0 | 0.00 | 0.03 | 0.03 | 39 | 1021.6 |
| 20260502020016 | 7 | 279 | 0.0 | 3.2 | 0.00 | 0.03 | 0.03 | 39 | 1021.6 |
| 20260502015507 | 7 | 279 | 0.0 | 3.2 | 0.00 | 0.03 | 0.03 | 38 | 1021.5 |
| 20260502015010 | 7 | 279 | 0.0 | 3.2 | 0.00 | 0.03 | 0.03 | 37 | 1021.4 |
| 20260502014521 | 7 | 277 | 1.6 | 3.2 | 0.00 | 0.03 | 0.03 | 36 | 1021.4 |
| 20260502014008 | 8 | 279 | 0.0 | 3.2 | 0.00 | 0.03 | 0.03 | 34 | 1021.3 |
| 20260502013505 | 8 | 294 | 0.0 | 3.2 | 0.00 | 0.03 | 0.03 | 34 | 1021.3 |
| 20260502013024 | 8 | 294 | 0.0 | 3.2 | 0.00 | 0.03 | 0.03 | 33 | 1021.2 |
| 20260502012509 | 8 | 298 | 0.0 | 4.8 | 0.00 | 0.03 | 0.03 | 33 | 1021.1 |
| 20260502012008 | 9 | 313 | 1.6 | 4.8 | 0.00 | 0.03 | 0.03 | 32 | 1021.1 |
| 20260502011525 | 9 | 297 | 1.6 | 8.0 | 0.00 | 0.03 | 0.03 | 32 | 1021.1 |
| 20260502011003 | 9 | 309 | 1.6 | 8.0 | 0.00 | 0.03 | 0.03 | 32 | 1021.1 |
| 20260502010505 | 10 | 294 | 1.6 | 11.3 | 0.00 | 0.03 | 0.03 | 32 | 1021.0 |
| 20260502010015 | 10 | 321 | 3.2 | 11.3 | 0.00 | 0.03 | 0.03 | 31 | 1021.1 |
| 20260502005506 | 10 | 305 | 4.8 | 12.9 | 0.00 | 0.03 | 0.03 | 30 | 1021.1 |
| 20260502005006 | 10 | 327 | 3.2 | 12.9 | 0.00 | 0.03 | 0.03 | 30 | 1021.1 |
| 20260502004527 | 10 | 316 | 4.8 | 12.9 | 0.00 | 0.03 | 0.03 | 30 | 1021.0 |
| 20260502004008 | 10 | 323 | 3.2 | 12.9 | 0.00 | 0.03 | 0.03 | 30 | 1021.0 |
| 20260502003507 | 10 | 330 | 4.8 | 11.3 | 0.00 | 0.03 | 0.03 | 30 | 1021.0 |
| 20260502003021 | 10 | 346 | 3.2 | 11.3 | 0.00 | 0.03 | 0.03 | 30 | 1021.0 |
| 20260502002509 | 10 | 338 | 3.2 | 8.0 | 0.00 | 0.03 | 0.03 | 31 | 1021.0 |
| 20260502002011 | 10 | 292 | 1.6 | 6.4 | 0.00 | 0.03 | 0.03 | 30 | 1021.0 |
| 20260502001536 | 10 | 302 | 1.6 | 9.7 | 0.00 | 0.03 | 0.03 | 30 | 1021.0 |
| 20260502001006 | 10 | 306 | 3.2 | 11.3 | 0.00 | 0.03 | 0.03 | 29 | 1020.9 |
| 20260502000510 | 10 | 296 | 6.4 | 11.3 | 0.00 | 0.03 | 0.03 | 29 | 1020.9 |
| 20260502000008 | 10 | 303 | 1.6 | 12.9 | 0.00 | 0.03 | 0.03 | 30 | 1020.9 |
| 20260501235504 | 10 | 279 | 3.2 | 12.9 | 0.00 | 0.03 | 0.03 | 28 | 1020.9 |
| 20260501235012 | 10 | 277 | 4.8 | 11.3 | 0.00 | 0.03 | 0.03 | 28 | 1020.9 |
| 20260501234515 | 11 | 319 | 1.6 | 11.3 | 0.00 | 0.03 | 0.03 | 30 | 1020.9 |
| 20260501234008 | 11 | 301 | 1.6 | 16.1 | 0.00 | 0.03 | 0.03 | 29 | 1020.9 |
| 20260501233504 | 11 | 311 | 6.4 | 16.1 | 0.00 | 0.03 | 0.03 | 28 | 1020.9 |
| 20260501233018 | 11 | 282 | 3.2 | 14.5 | 0.00 | 0.03 | 0.03 | 28 | 1021.0 |
| 20260501232512 | 11 | 311 | 4.8 | 12.9 | 0.00 | 0.03 | 0.03 | 29 | 1021.0 |
| 20260501232008 | 11 | 298 | 1.6 | 12.9 | 0.00 | 0.03 | 0.03 | 27 | 1021.0 |
| 20260501231527 | 11 | 312 | 4.8 | 12.9 | 0.00 | 0.03 | 0.03 | 28 | 1021.0 |
| 20260501231007 | 11 | 254 | 3.2 | 17.7 | 0.00 | 0.03 | 0.03 | 29 | 1021.0 |
| 20260501230510 | 11 | 286 | 4.8 | 20.9 | 0.00 | 0.03 | 0.03 | 27 | 1021.1 |
| 20260501230051 | 11 | 319 | 8.0 | 20.9 | 0.00 | 0.03 | 0.03 | 27 | 1021.0 |
| 20260501225509 | 12 | 275 | 8.0 | 20.9 | 0.00 | 0.03 | 0.03 | 26 | 1021.0 |
| 20260501225005 | 12 | 340 | 6.4 | 20.9 | 0.00 | 0.03 | 0.03 | 28 | 1021.1 |
| 20260501224514 | 12 | 280 | 12.9 | 19.3 | 0.00 | 0.03 | 0.03 | 27 | 1021.0 |
| 20260501224006 | 12 | 61 | 6.4 | 14.5 | 0.00 | 0.03 | 0.03 | 26 | 1021.1 |
| 20260501223507 | 12 | 321 | 4.8 | 16.1 | 0.00 | 0.03 | 0.03 | 27 | 1021.1 |
| 20260501223021 | 12 | 331 | 4.8 | 20.9 | 0.00 | 0.03 | 0.03 | 26 | 1021.1 |
| 20260501222508 | 12 | 325 | 8.0 | 20.9 | 0.00 | 0.03 | 0.03 | 26 | 1021.1 |
| 20260501222011 | 12 | 309 | 3.2 | 17.7 | 0.00 | 0.03 | 0.03 | 26 | 1021.1 |
| 20260501221523 | 12 | 340 | 8.0 | 17.7 | 0.00 | 0.03 | 0.03 | 26 | 1021.1 |
| 20260501221009 | 12 | 332 | 6.4 | 12.9 | 0.00 | 0.03 | 0.03 | 26 | 1021.1 |
| 20260501220505 | 12 | 312 | 1.6 | 17.7 | 0.00 | 0.03 | 0.03 | 28 | 1021.1 |
| 20260501220006 | 12 | 352 | 4.8 | 17.7 | 0.00 | 0.03 | 0.03 | 28 | 1021.2 |
| 20260501215505 | 12 | 351 | 1.6 | 8.0 | 0.00 | 0.03 | 0.03 | 28 | 1021.1 |
| 20260501215005 | 12 | 28 | 3.2 | 14.5 | 0.00 | 0.03 | 0.03 | 28 | 1021.2 |
| 20260501214509 | 12 | 320 | 3.2 | 14.5 | 0.00 | 0.03 | 0.03 | 25 | 1021.2 |
| 20260501214004 | 12 | 26 | 3.2 | 12.9 | 0.00 | 0.03 | 0.03 | 26 | 1021.2 |
| 20260501213505 | 12 | 348 | 1.6 | 14.5 | 0.00 | 0.03 | 0.03 | 29 | 1021.1 |
| 20260501213020 | 12 | 296 | 4.8 | 19.3 | 0.00 | 0.03 | 0.03 | 28 | 1021.1 |
| 20260501212508 | 12 | 273 | 8.0 | 19.3 | 0.00 | 0.03 | 0.03 | 26 | 1021.3 |
| 20260501212010 | 12 | 252 | 8.0 | 17.7 | 0.00 | 0.03 | 0.03 | 26 | 1021.3 |
| 20260501211521 | 12 | 265 | 4.8 | 17.7 | 0.00 | 0.03 | 0.03 | 28 | 1021.4 |
| 20260501211011 | 12 | 31 | 3.2 | 8.0 | 0.00 | 0.03 | 0.03 | 28 | 1021.4 |